TimeCEST,TemperatureF,Dew PointF,Humidity,Sea Level PressureIn,VisibilityMPH,Wind Direction,Wind SpeedMPH,Gust SpeedMPH,PrecipitationIn,Events,Conditions,WindDirDegrees,DateUTC
12:00 AM,55.4,50.0,82,30.18,-9999.0,Calm,Calm,-,N/A,,Clear,0,2012-10-02 22:00:00
5:30 AM,50.0,48.2,94,30.15,-9999.0,Calm,Calm,-,N/A,,Clear,0,2012-10-03 03:30:00
6:00 AM,48.2,46.4,93,30.15,-9999.0,Calm,Calm,-,N/A,,Clear,0,2012-10-03 04:00:00
6:30 AM,46.4,46.4,100,30.15,-9999.0,Calm,Calm,-,N/A,,Clear,0,2012-10-03 04:30:00
7:00 AM,48.2,46.4,93,30.15,-9999.0,Calm,Calm,-,N/A,,Clear,0,2012-10-03 05:00:00
7:30 AM,46.4,46.4,100,30.15,-9999.0,Calm,Calm,-,N/A,,Clear,0,2012-10-03 05:30:00
8:00 AM,46.4,46.4,100,30.15,-9999.0,Calm,Calm,-,N/A,,Clear,0,2012-10-03 06:00:00
8:30 AM,46.4,46.4,100,30.15,-9999.0,South,1.2,-,N/A,,Clear,170,2012-10-03 06:30:00
9:00 AM,50.0,50.0,100,30.15,-9999.0,Calm,Calm,-,N/A,,Clear,0,2012-10-03 07:00:00
9:30 AM,51.8,50.0,94,30.15,-9999.0,Calm,Calm,-,N/A,,Clear,0,2012-10-03 07:30:00
10:00 AM,53.6,50.0,88,30.15,-9999.0,Calm,Calm,-,N/A,,Clear,0,2012-10-03 08:00:00
10:30 AM,57.2,51.8,82,30.15,-9999.0,Calm,Calm,-,N/A,,Clear,0,2012-10-03 08:30:00
11:00 AM,57.2,51.8,82,30.15,-9999.0,Calm,Calm,-,N/A,,Clear,0,2012-10-03 09:00:00
11:30 AM,60.8,51.8,72,30.15,-9999.0,Calm,Calm,-,N/A,,Clear,0,2012-10-03 09:30:00
12:00 PM,62.6,51.8,68,30.15,-9999.0,Calm,Calm,-,N/A,,Clear,0,2012-10-03 10:00:00
12:30 PM,66.2,51.8,60,30.15,-9999.0,Calm,Calm,-,N/A,,Clear,0,2012-10-03 10:30:00
1:00 PM,68.0,51.8,56,30.15,-9999.0,Calm,Calm,-,N/A,,Clear,0,2012-10-03 11:00:00
1:30 PM,69.8,50.0,49,30.12,-9999.0,North,1.2,-,N/A,,Clear,350,2012-10-03 11:30:00
2:00 PM,73.4,50.0,44,30.12,-9999.0,WNW,1.2,-,N/A,,Clear,290,2012-10-03 12:00:00
2:30 PM,75.2,48.2,38,30.09,-9999.0,WSW,1.2,-,N/A,,Clear,250,2012-10-03 12:30:00
3:00 PM,77.0,46.4,34,30.06,-9999.0,SW,5.8,-,N/A,,Clear,220,2012-10-03 13:00:00
3:30 PM,77.0,46.4,34,30.06,-9999.0,SSW,9.2,-,N/A,,Clear,210,2012-10-03 13:30:00
4:00 PM,78.8,44.6,30,30.06,-9999.0,SW,10.4,-,N/A,,Clear,220,2012-10-03 14:00:00
4:30 PM,78.8,46.4,32,30.04,-9999.0,SSW,8.1,-,N/A,,Clear,200,2012-10-03 14:30:00
5:00 PM,78.8,44.6,30,30.04,6.2,SSW,5.8,-,N/A,,Partly Cloudy,210,2012-10-03 15:00:00
5:30 PM,78.8,44.6,30,30.04,6.2,SSW,8.1,-,N/A,,Partly Cloudy,210,2012-10-03 15:30:00
6:00 PM,77.0,44.6,32,30.04,6.2,WSW,8.1,-,N/A,,Partly Cloudy,240,2012-10-03 16:00:00
6:30 PM,77.0,46.4,34,30.04,6.2,WSW,6.9,-,N/A,,Partly Cloudy,240,2012-10-03 16:30:00
7:00 PM,75.2,46.4,36,30.04,6.2,SW,4.6,-,N/A,,Partly Cloudy,230,2012-10-03 17:00:00
7:30 PM,73.4,48.2,41,30.04,6.2,Variable,2.3,-,N/A,,Partly Cloudy,0,2012-10-03 17:30:00
8:00 PM,69.8,50.0,49,30.04,-9999.0,SW,2.3,-,N/A,,Clear,220,2012-10-03 18:00:00
8:30 PM,66.2,53.6,64,30.04,-9999.0,NW,4.6,-,N/A,,Clear,320,2012-10-03 18:30:00
9:00 PM,64.4,55.4,73,30.06,-9999.0,NNW,3.5,-,N/A,,Clear,330,2012-10-03 19:00:00
9:30 PM,62.6,55.4,77,30.06,-9999.0,WNW,4.6,-,N/A,,Clear,300,2012-10-03 19:30:00
10:00 PM,62.6,57.2,82,30.06,-9999.0,NW,3.5,-,N/A,,Clear,310,2012-10-03 20:00:00
10:30 PM,60.8,57.2,88,30.09,-9999.0,NNW,3.5,-,N/A,,Clear,330,2012-10-03 20:30:00
11:00 PM,60.8,55.4,82,30.09,-9999.0,WNW,2.3,-,N/A,,Clear,290,2012-10-03 21:00:00
11:30 PM,60.8,55.4,82,30.09,-9999.0,Variable,1.2,-,N/A,,Clear,0,2012-10-03 21:30:00